Fort Drum, NY

6:14 AM EST on November 17, 2019 (GMT -0500)
Wheeler-Sack Army Air Field

Weather History for KGTB - October, 2019

Change the Weather History Date:

Sunday, October 20, 2019

  Actual Average Record
Temperature  
Mean Temperature 48 °F -  
Max Temperature 59 °F 51 °F 68 °F (2000)
Min Temperature 37 °F 35 °F 26 °F (2003)
Degree Days  
Heating Degree Days 17    
Moisture  
Dew Point 40 °F    
Average Humidity 75    
Maximum Humidity 91    
Minimum Humidity 58    
Precipitation  
Precipitation 0.00 in - - ()
Sea Level Pressure  
Sea Level Pressure 29.97 in    
Wind  
Wind Speed 10 mph (SE)    
Max Wind Speed 15 mph    
Max Gust Speed -    
Visibility 10 miles    
Events      
Averages and records for this station are not official NWS values.
T = Trace of Precipitation, MM = Missing Value Source: NWS Daily Summary

Daily Weather History Graph

Daily Weather History Graph

Search for Another Location

Airport or City:

Astronomy

Oct. 20, 2019 Rise Set
Actual Time 7:23 AM EDT 6:11 PM EDT
Civil Twilight 6:54 AM EDT 6:40 PM EDT
Nautical Twilight 6:20 AM EDT 7:14 PM EDT
Astronomical Twilight 5:47 AM EDT 7:47 PM EDT
Moon 11:09 PM EDT (10/20) 1:58 PM EDT (10/20)
Length of Visible Light 11h 46m
Length of Day
10h 47m
Waning Gibbous, 59% of the Moon is Illuminated
Oct 20
Waning Gibbous
Oct 21
Last Quarter
Oct 27
New
Nov 4
First Quarter
Nov 12
Full

Hourly Weather History & Observations

Time (EDT) Temp. Windchill Dew Point Humidity Pressure Visibility Wind Dir Wind Speed Gust Speed Precip Events Conditions
12:56 AM 37.9 °F 31.5 °F 34.7 °F 88% 29.99 in 10.0 mi SSE 9.2 mph - N/A   Clear
1:56 AM 38.5 °F 31.1 °F 34.9 °F 87% 29.98 in 10.0 mi SE 11.5 mph - N/A   Clear
2:56 AM 38.7 °F 30.9 °F 34.9 °F 86% 29.98 in 10.0 mi SE 12.7 mph - N/A   Clear
3:56 AM 39.2 °F 31.2 °F 33.8 °F 81% 29.97 in 10.0 mi SE 13.8 mph - N/A   Clear
4:56 AM 40.3 °F 32.2 °F 34.0 °F 78% 29.94 in 10.0 mi SE 15.0 mph - N/A   Partly Cloudy
5:56 AM 41.7 °F 34.4 °F 34.0 °F 74% 29.96 in 10.0 mi SSE 13.8 mph - N/A   Mostly Cloudy
6:56 AM 41.5 °F 34.6 °F 33.8 °F 74% 29.95 in 10.0 mi SE 12.7 mph - N/A   Overcast
7:56 AM 43.0 °F 36.4 °F 34.2 °F 71% 29.94 in 10.0 mi SSE 12.7 mph - N/A   Overcast
8:56 AM 44.2 °F 38.4 °F 35.4 °F 71% 29.95 in 10.0 mi SE 11.5 mph - N/A   Partly Cloudy
9:56 AM 46.8 °F - 36.3 °F 67% 29.96 in 10.0 mi SE 10.4 mph - N/A   Clear
10:56 AM 49.1 °F - 37.8 °F 65% 29.97 in 10.0 mi SSE 9.2 mph - N/A   Scattered Clouds
11:56 AM 52.3 °F - 40.5 °F 64% 29.97 in 10.0 mi SE 9.2 mph - N/A   Overcast
12:56 PM 53.6 °F - 41.4 °F 63% 29.96 in 10.0 mi SE 8.1 mph - N/A   Overcast
1:56 PM 55.9 °F - 42.6 °F 61% 29.94 in 10.0 mi SSE 8.1 mph - N/A   Mostly Cloudy
2:56 PM 58.1 °F - 43.3 °F 58% 29.94 in 10.0 mi SE 6.9 mph - N/A   Scattered Clouds
3:56 PM 58.1 °F - 43.9 °F 59% 29.95 in 10.0 mi SE 6.9 mph - N/A   Overcast
4:56 PM 59.4 °F - 44.6 °F 58% 29.95 in 10.0 mi SE 8.1 mph - N/A   Scattered Clouds
5:56 PM 56.3 °F - 45.9 °F 68% 29.96 in 10.0 mi SE 3.5 mph - N/A   Clear
6:56 PM 49.3 °F - 43.7 °F 81% 29.97 in 10.0 mi Calm Calm - N/A   Clear
7:56 PM 49.3 °F - 44.6 °F 84% 29.99 in 10.0 mi SSE 6.9 mph - N/A   Scattered Clouds
8:56 PM 49.1 °F - 45.1 °F 86% 29.99 in 9.0 mi SE 8.1 mph - N/A   Clear
9:56 PM 48.2 °F - 45.1 °F 89% 30.00 in 10.0 mi SE 9.2 mph - N/A   Clear
10:56 PM 47.1 °F - 44.4 °F 90% 30.01 in 10.0 mi SE 9.2 mph - N/A   Clear
11:56 PM 46.2 °F 41.2 °F 43.7 °F 91% 30.02 in 10.0 mi SE 10.4 mph - N/A   Clear